[[{"header":{"parameterUnit":"m.s-1","parameterCategory":1,"la1":30.2991,"la2":30.254,"lo1":-89.0895,"lo2":-89.0444,"dy":0.0017,"dx":0.0017,"nx":28,"ny":28,"refTime":"2024-08-07T21:00:00:Z","depth":0,"parameterNumber":2,"parameterNumberName":"U-component_of_WINDS"},"data":[0,0,0,0,0,0,0,0,0,0,0,0,0,0,0,0,0,0,0,0,0,0,0,0,0,0,0,0,0,0,0,0,0,0,0,0,0,0,0,0,0,0,0,0,0,0,0,0,0,0,0,0,0,0,0,0,0,0,2.8709,2.871,0,2.8751,2.8752,2.8752,2.8715,2.8714,2.8712,2.8711,2.8756,2.8758,2.8761,0,0,0,0,0,0,0,0,0,0,0,0,0,2.8601,2.8603,2.8709,2.871,2.871,2.8751,2.8752,2.8752,2.8715,2.8714,2.8712,2.871,2.8755,2.8758,2.8761,0,0,0,0,0,0,0,0,0,0,0,0,0,2.8646,2.8604,2.8709,2.8697,2.8696,2.8751,2.8752,2.8752,2.8716,2.8713,2.8711,2.8709,2.8754,2.8758,2.8762,2.8832,0,0,2.8774,2.8775,0,0,0,0,0,0,0,0,2.8644,2.865,2.8698,2.8698,2.8697,2.8725,2.873,2.8779,2.8716,2.8708,2.8711,2.8708,2.8748,2.8752,2.8765,2.8834,2.8836,2.8774,2.8776,2.8778,2.8779,0,0,0,0,0,0,0,2.8641,2.8648,2.8726,2.8699,2.8698,2.869,2.8694,2.8739,2.874,2.8709,2.8706,2.8712,2.8747,2.8761,2.8766,2.8836,2.8774,2.8777,2.878,2.8781,2.8967,2.897,0,0,0,0,0,0,2.8638,2.8646,2.8725,2.8727,2.8664,2.8694,2.8698,2.8719,2.874,2.8741,2.8714,2.871,2.8756,2.8761,2.8767,2.8852,2.8778,2.8782,2.8784,2.8965,2.8968,2.8971,0,0,0,0,0,0,2.8636,2.8646,2.8723,2.8686,2.8695,2.8698,2.8721,2.8721,2.8735,2.8743,2.8744,2.8728,2.8754,2.8762,2.8816,2.8853,2.8783,2.8787,2.8962,2.8966,2.8969,2.9022,0,0,0,0,0,0,2.8633,2.8645,2.8671,2.8687,2.8697,2.877,2.8724,2.8723,2.8741,2.8737,2.8757,2.8758,2.8753,2.8811,2.882,2.8857,2.879,2.8958,2.8963,2.8968,2.9017,2.9027,2.9036,0,0,0,0,0,2.8629,2.8684,2.8672,2.8682,2.8729,2.8772,2.8778,2.8771,2.8745,2.8771,2.8777,2.8757,2.8848,2.8817,2.8827,2.8866,2.8956,2.8962,2.8968,2.9013,2.9025,2.9036,0,0,0,0,0,0,2.8672,2.8686,2.8673,2.8734,2.8752,2.8766,2.8799,2.8784,2.8811,2.8806,2.8796,2.8801,2.8859,2.8868,2.8833,2.8936,2.8898,2.8906,2.8928,2.894,2.895,2.8947,2.8793,0,0,0,0,0,2.8689,2.8722,2.8732,2.8785,2.8795,2.8796,2.8814,2.8807,2.8826,2.8834,2.8843,2.8864,2.8897,2.8919,2.895,2.9018,2.9023,2.905,2.906,2.9067,2.9075,2.9114,2.9127,2.899,2.899,2.899,0,0,2.8723,2.8735,2.8756,2.8794,2.8807,2.8844,2.8802,2.8842,2.8869,2.884,2.8893,2.8901,2.8923,2.8985,2.9013,2.8994,2.9114,2.9075,2.9081,2.9084,2.9121,2.9135,2.9146,2.8994,2.8993,2.8992,0,0,2.8805,2.8816,2.8862,2.8877,2.8898,2.8898,2.891,2.8926,2.8931,2.8983,2.8963,2.8996,2.9052,2.9069,2.9086,2.9176,2.916,2.9186,2.9236,2.9275,2.9286,2.9295,2.9329,2.9342,2.9194,2.9194,2.9194,0,2.8846,2.8898,2.8888,2.893,2.8948,2.8923,2.8971,2.8986,2.9017,2.903,2.9008,2.9081,2.9093,2.9161,2.9183,2.9196,2.9211,2.9184,2.9285,2.9294,2.9303,2.9336,2.9348,2.9197,2.9197,2.9196,2.9196,0,2.8948,2.8985,2.902,2.905,2.9072,2.9116,2.9115,2.9139,2.913,2.9134,2.9189,2.9203,2.9238,2.9253,2.9245,2.932,2.9308,2.9286,2.9247,2.9319,2.935,2.9362,2.9202,2.9201,2.92,2.9199,0,0,2.9058,2.9082,2.9096,2.911,2.9132,2.9161,2.9206,2.9239,2.926,2.9283,2.9321,2.937,2.935,2.9369,2.9363,2.9396,2.947,2.937,2.937,2.939,2.9556,2.9574,2.9589,2.9459,2.9461,2.9463,2.9555,0,2.9142,2.9218,2.9211,2.9284,2.9319,2.9298,2.9336,2.9355,2.936,2.9392,2.9397,2.9433,2.9403,2.9414,2.9446,2.9454,2.9503,2.9447,2.9496,2.9498,2.9493,2.9604,2.9623,2.9709,2.9567,2.9569,2.957,0,2.9249,2.9276,2.9352,2.9371,2.9386,2.942,2.9452,2.9482,2.9503,2.9505,2.9526,2.9515,2.9562,2.9521,2.9587,2.9549,2.9569,2.9576,2.9579,2.9584,2.9539,2.9614,2.9736,2.975,2.9588,2.9587,2.9586,0,2.9324,2.9379,2.9432,2.9444,2.9467,2.9493,2.9504,2.9523,2.9544,2.9572,2.9586,2.9619,2.9637,2.9664,2.9663,2.9633,2.973,2.9689,2.9734,2.9734,2.9756,2.9755,2.9884,2.9766,2.9766,2.9766,2.9766,0,2.942,2.9468,2.9466,2.9499,2.9553,2.9546,2.96,2.9608,2.9626,2.9661,2.9644,2.9678,2.9674,2.9708,2.9708,2.9763,2.9771,2.9775,2.9775,2.9777,2.9777,2.9791,2.9786,2.9769,2.9769,2.9768,2.9767,0,2.9513,2.9513,2.957,2.9587,2.9593,2.9632,2.9647,2.968,2.9683,2.9729,2.9739,2.9745,2.9785,2.9786,2.9832,2.9832,2.99,2.9892,2.9893,2.9892,2.9938,2.9934,3.0082,3.0102,2.9969,2.9971,2.9972,0,2.9574,2.9611,2.9632,2.9654,2.9667,2.9703,2.9725,2.9719,2.9743,2.9772,2.9801,2.9839,2.987,2.9935,2.9945,2.9981,2.9974,3.0024,2.998,2.9982,2.9978,2.9976,2.9981,3.0033,3.0034,3.0035,3.0036,0,2.9684,2.9683,2.9714,2.9747,2.9773,2.9799,2.9822,2.9842,2.9839,2.9867,2.9908,2.9932,2.9979,3.0018,3.0053,3.0066,3.0052,3.005,3.0063,3.0067,3.0067,3.0069,2.9918,3.0047,3.0046,3.0045,3.0045,3.0044,2.9764,2.9797,2.9817,2.9854,2.9871,2.9894,2.9926,2.9933,2.9967,3.0005,3.0,3.0046,3.0069,3.0114,3.013,3.0167,3.015,3.0168,3.0173,3.0178,3.0184,3.0059,3.0173,3.0173,3.0172,3.0172,3.0172,0,2.9875,2.9888,2.9921,2.9955,2.9984,2.9967,2.9993,3.0019,3.0059,3.0081,3.0112,3.016,3.0198,3.0211,3.0249,3.0276,3.0271,3.0287,3.0285,3.0289,3.0195,3.0182,3.0291,3.0291,3.029,3.029,3.029,3.029,2.9936,2.9991,2.9993,3.0057,3.0069,3.0113,3.013,3.0152,3.0169,3.0224,3.0255,3.0263,3.0282,3.0322,3.0357,3.036,3.0375,3.0394,3.0395,3.0307,3.0295,3.0284,3.0271,3.0397,3.0397,3.0486,3.0486,3.0487]},{"header":{"parameterUnit":"m.s-1","parameterCategory":1,"la1":30.2991,"la2":30.254,"lo1":-89.0895,"lo2":-89.0444,"dy":0.0017,"dx":0.0017,"nx":28,"ny":28,"refTime":"2024-08-07T21:00:00:Z","depth":0,"parameterNumber":3,"parameterNumberName":"V-component_of_WINDS"},"data":[0,0,0,0,0,0,0,0,0,0,0,0,0,0,0,0,0,0,0,0,0,0,0,0,0,0,0,0,0,0,0,0,0,0,0,0,0,0,0,0,0,0,0,0,0,0,0,0,0,0,0,0,0,0,0,0,0,0,-1.8039,-1.8039,0,-1.8124,-1.8125,-1.8126,-1.8143,-1.8142,-1.8142,-1.8141,-1.8228,-1.823,-1.8233,0,0,0,0,0,0,0,0,0,0,0,0,0,-1.7891,-1.7893,-1.8038,-1.8039,-1.8041,-1.8124,-1.8125,-1.8126,-1.8143,-1.8142,-1.8142,-1.8141,-1.8227,-1.823,-1.8234,0,0,0,0,0,0,0,0,0,0,0,0,0,-1.7963,-1.7894,-1.8038,-1.8059,-1.8062,-1.8124,-1.8125,-1.8126,-1.8143,-1.8142,-1.8141,-1.8141,-1.8226,-1.823,-1.8234,-1.8281,0,0,-1.8247,-1.8249,0,0,0,0,0,0,0,0,-1.7959,-1.7969,-1.8055,-1.8058,-1.8061,-1.8122,-1.8105,-1.8178,-1.8144,-1.8112,-1.8141,-1.814,-1.8193,-1.82,-1.8218,-1.8285,-1.8288,-1.8248,-1.825,-1.8252,-1.8254,0,0,0,0,0,0,0,-1.7954,-1.7965,-1.8072,-1.8056,-1.806,-1.8065,-1.8074,-1.8119,-1.8157,-1.8115,-1.8117,-1.8126,-1.8195,-1.8214,-1.822,-1.829,-1.8248,-1.8252,-1.8254,-1.8256,-1.8401,-1.8402,0,0,0,0,0,0,-1.7945,-1.7961,-1.807,-1.8075,-1.8007,-1.8068,-1.8078,-1.8103,-1.8157,-1.8164,-1.8127,-1.8127,-1.8207,-1.8215,-1.8224,-1.8283,-1.8252,-1.8256,-1.8259,-1.84,-1.8401,-1.8402,0,0,0,0,0,0,-1.7942,-1.7955,-1.8066,-1.8018,-1.8033,-1.8072,-1.81,-1.8106,-1.8125,-1.8166,-1.8173,-1.814,-1.8207,-1.8217,-1.8267,-1.8286,-1.8258,-1.8262,-1.8398,-1.84,-1.8402,-1.8401,0,0,0,0,0,0,-1.7938,-1.7954,-1.7971,-1.8019,-1.8035,-1.8108,-1.8101,-1.8108,-1.8133,-1.8133,-1.818,-1.8187,-1.8207,-1.826,-1.8271,-1.8292,-1.8266,-1.8397,-1.8399,-1.8401,-1.84,-1.8403,-1.8405,0,0,0,0,0,-1.7933,-1.7967,-1.7972,-1.7985,-1.8058,-1.8109,-1.8118,-1.8141,-1.8134,-1.8153,-1.8179,-1.8185,-1.8282,-1.8265,-1.8278,-1.83,-1.8395,-1.8398,-1.8401,-1.8398,-1.8402,-1.8405,0,0,0,0,0,0,-1.792,-1.7974,-1.798,-1.8031,-1.8065,-1.8112,-1.8135,-1.8144,-1.8181,-1.818,-1.8206,-1.8217,-1.8265,-1.8287,-1.8267,-1.8349,-1.8339,-1.8344,-1.8332,-1.8336,-1.8339,-1.8333,-1.8269,0,0,0,0,0,-1.7924,-1.796,-1.8005,-1.8046,-1.8063,-1.8096,-1.8119,-1.8134,-1.817,-1.8185,-1.8215,-1.825,-1.8289,-1.8314,-1.8351,-1.8403,-1.8414,-1.8424,-1.8427,-1.843,-1.8434,-1.8464,-1.847,-1.8411,-1.8411,-1.8411,0,0,-1.7931,-1.7965,-1.7986,-1.8044,-1.8072,-1.811,-1.8108,-1.8148,-1.8176,-1.8191,-1.824,-1.8263,-1.8304,-1.8356,-1.838,-1.8376,-1.8453,-1.8433,-1.8434,-1.8438,-1.8468,-1.8473,-1.8478,-1.8413,-1.8413,-1.8413,0,0,-1.7963,-1.7992,-1.803,-1.8059,-1.8102,-1.8125,-1.8134,-1.818,-1.8196,-1.8246,-1.8258,-1.8293,-1.8358,-1.8388,-1.8411,-1.8457,-1.8464,-1.8469,-1.8484,-1.8513,-1.8518,-1.8522,-1.8539,-1.8545,-1.8473,-1.8473,-1.8473,0,-1.7966,-1.8024,-1.8048,-1.8088,-1.8114,-1.813,-1.8169,-1.8196,-1.8249,-1.8267,-1.8262,-1.8346,-1.8374,-1.8434,-1.8445,-1.8463,-1.8475,-1.8463,-1.8515,-1.852,-1.8524,-1.8541,-1.8547,-1.8473,-1.8473,-1.8473,-1.8473,0,-1.8026,-1.8066,-1.8091,-1.8144,-1.8172,-1.8211,-1.8242,-1.8268,-1.8281,-1.8304,-1.8356,-1.8391,-1.8437,-1.8452,-1.8464,-1.8514,-1.851,-1.851,-1.85,-1.8529,-1.8546,-1.8552,-1.8473,-1.8473,-1.8473,-1.8473,0,0,-1.8052,-1.8119,-1.8128,-1.8152,-1.8203,-1.8234,-1.8274,-1.832,-1.8343,-1.8379,-1.8414,-1.8471,-1.8472,-1.8498,-1.8514,-1.854,-1.8576,-1.8537,-1.8538,-1.8544,-1.8634,-1.8634,-1.8641,-1.8581,-1.8583,-1.8584,-1.8631,0,-1.8091,-1.8164,-1.8188,-1.8249,-1.8286,-1.8303,-1.8339,-1.8374,-1.8397,-1.8432,-1.8458,-1.8498,-1.8495,-1.8512,-1.8538,-1.8566,-1.8594,-1.8563,-1.8615,-1.8616,-1.8604,-1.865,-1.865,-1.8692,-1.8637,-1.8638,-1.8639,0,-1.8146,-1.8185,-1.8249,-1.8297,-1.8313,-1.8345,-1.839,-1.8423,-1.8464,-1.8479,-1.851,-1.8525,-1.8568,-1.8556,-1.8618,-1.8596,-1.8618,-1.8635,-1.8638,-1.8644,-1.8629,-1.8657,-1.8706,-1.8713,-1.8649,-1.8648,-1.8648,0,-1.8159,-1.8228,-1.8276,-1.8296,-1.8352,-1.8374,-1.8399,-1.8438,-1.8465,-1.8504,-1.8522,-1.8565,-1.8589,-1.8623,-1.8649,-1.8638,-1.8709,-1.8699,-1.8723,-1.8723,-1.8737,-1.8736,-1.8791,-1.8751,-1.8751,-1.8751,-1.8751,0,-1.8201,-1.824,-1.8283,-1.8313,-1.8357,-1.8385,-1.8429,-1.8454,-1.849,-1.8525,-1.8542,-1.8575,-1.8607,-1.8645,-1.8665,-1.8714,-1.8724,-1.8738,-1.8743,-1.8737,-1.8735,-1.8752,-1.875,-1.8752,-1.8752,-1.8752,-1.8751,0,-1.8223,-1.8254,-1.8307,-1.8357,-1.837,-1.8401,-1.8443,-1.8473,-1.8498,-1.8542,-1.8554,-1.8593,-1.8638,-1.8668,-1.8725,-1.8739,-1.8792,-1.8796,-1.8778,-1.8781,-1.8804,-1.8802,-1.8872,-1.8884,-1.8835,-1.8836,-1.8836,0,-1.8248,-1.8279,-1.8332,-1.8357,-1.8382,-1.8421,-1.8449,-1.8478,-1.8506,-1.8556,-1.858,-1.8627,-1.8665,-1.8736,-1.877,-1.8814,-1.882,-1.8841,-1.8826,-1.882,-1.8821,-1.8819,-1.8823,-1.8844,-1.8844,-1.8844,-1.8845,0,-1.8288,-1.8303,-1.8342,-1.8387,-1.842,-1.8457,-1.8494,-1.8514,-1.8549,-1.858,-1.8627,-1.8657,-1.8716,-1.8762,-1.881,-1.8836,-1.8847,-1.8849,-1.8858,-1.8852,-1.8841,-1.8848,-1.8786,-1.8847,-1.8847,-1.8847,-1.8847,-1.8847,-1.8314,-1.8342,-1.8385,-1.8429,-1.846,-1.8494,-1.8525,-1.8554,-1.8594,-1.8645,-1.866,-1.8709,-1.875,-1.8816,-1.8842,-1.8881,-1.8879,-1.889,-1.8893,-1.8896,-1.8897,-1.8834,-1.889,-1.889,-1.889,-1.889,-1.889,0,-1.8356,-1.8385,-1.8425,-1.8477,-1.8511,-1.8519,-1.8561,-1.859,-1.8633,-1.8671,-1.8709,-1.8764,-1.8809,-1.8846,-1.8893,-1.8918,-1.8924,-1.8929,-1.8928,-1.8934,-1.8896,-1.8884,-1.8923,-1.8923,-1.8923,-1.8923,-1.8923,-1.8923,-1.8382,-1.8432,-1.8451,-1.8517,-1.8546,-1.8594,-1.8618,-1.865,-1.8681,-1.8741,-1.8779,-1.8803,-1.8842,-1.8892,-1.8934,-1.8944,-1.8961,-1.8965,-1.8976,-1.894,-1.8936,-1.8933,-1.8922,-1.8969,-1.8969,-1.9012,-1.9012,-1.9012]}]]